Location: Newark
(41.9364°N, 2.8061°E)
Time: 12:40:07
(UTC+00:00)

Vanguard 1 Rocket - Visible Passes

Search period start: 28 February 2020 00:00
Search period end: 09 March 2020 00:00
Orbit: 650 x 4226 km, 34.3° (Epoch: 27 February)

Date Brightness Start Highest point End Pass type
(mag) Time Alt. Az. Time Alt. Az. Time Alt. Az.
28 Feb 8.8 03:39:05 23° SE 03:39:05 23° SE 03:40:55 10° ESE visible
28 Feb 8.9 05:58:26 10° SW 06:00:18 12° SSW 06:02:05 10° S visible
28 Feb 11.2 21:20:58 10° S 21:23:47 13° S 21:23:47 13° S visible
29 Feb 8.3 04:49:12 22° SW 04:49:52 23° SSW 04:53:27 10° SSE visible
29 Feb 11.1 20:11:16 10° S 20:16:58 14° SSE 20:16:58 14° SSE visible
29 Feb 11.4 22:33:38 10° SW 22:34:17 11° SW 22:34:17 11° SW visible
01 Mar 8.8 03:42:02 22° SSE 03:42:02 22° SSE 03:43:52 10° SE visible
01 Mar 11.0 21:20:45 10° SSW 21:27:30 20° S 21:27:30 20° S visible
02 Mar 8.6 04:52:11 18° SW 04:52:38 18° SSW 04:55:50 10° SSE visible
02 Mar 10.8 20:09:14 10° S 20:20:46 20° SSE 20:20:46 20° SSE visible
02 Mar 11.2 22:34:49 10° SW 22:38:06 16° SW 22:38:06 16° SW visible
03 Mar 8.9 03:45:04 20° SSE 03:45:04 20° SSE 03:46:42 10° SE visible
03 Mar 11.0 19:00:49 10° SSE 19:09:38 14° SE 19:14:04 12° SE visible
03 Mar 10.7 21:21:10 10° SSW 21:31:25 27° S 21:31:25 27° S visible
04 Mar 8.9 04:55:16 14° SW 04:55:16 14° SW 04:57:46 10° S visible
04 Mar 10.6 20:08:36 10° SSW 20:24:45 27° SSE 20:24:45 27° SSE visible
04 Mar 11.0 22:36:17 10° SW 22:42:05 21° SW 22:42:05 21° SW visible
05 Mar 9.1 03:48:12 16° SSE 03:48:12 16° SSE 03:49:22 10° SSE visible
05 Mar 10.8 18:57:57 10° S 19:12:13 20° SE 19:18:06 17° ESE visible
05 Mar 10.5 21:22:03 10° SW 21:35:27 34° SSW 21:35:27 34° SSW visible
06 Mar 10.3 20:08:43 10° SSW 20:28:02 34° SSE 20:28:49 34° SSE visible
06 Mar 10.8 22:38:00 10° WSW 22:46:10 27° SW 22:46:10 27° SW visible
07 Mar 9.4 03:51:29 11° SSE 03:51:29 11° SSE 03:51:50 10° SSE visible
07 Mar 10.6 18:56:54 10° S 19:14:42 26° SE 19:22:11 20° ESE visible
07 Mar 10.2 21:23:16 10° SW 21:39:32 43° SSW 21:39:32 43° SSW visible
07 Mar 11.3 23:55:14 10° WSW 23:56:52 13° WSW 23:56:52 13° WSW visible
08 Mar 10.1 20:09:21 10° SSW 20:30:36 41° SSE 20:32:53 40° SE visible
08 Mar 10.6 22:39:54 10° WSW 22:50:13 33° SW 22:50:13 33° SW visible
